Regional Weather Roundup
Issued by NWS Jackson, KY

Home | Current Version | Previous Version | Text Only | Print | Product List | Glossary Off
Versions: 1 2 3 4 5 6 7 8 9 10 11 12 13 14 15 16 17 18 19 20 21 22 23 24 25 26 27

000
ASUS43 KJKL 231110
RWRJKL

EAST KENTUCKY HOURLY WEATHER ROUNDUP
NATIONAL WEATHER SERVICE JACKSON KY
700 AM EDT SUN JUL 23 2017

NOTE: "FAIR" INDICATES FEW OR NO CLOUDS BELOW 12,000 FEET WITH
NO SIGNIFICANT WEATHER AND/OR OBSTRUCTIONS TO VISIBILITY.

* THESE REPORTS ARE NOT UNDER NWS QUALITY CONTROL AND MAY NOT
  REPORT WEATHER SUCH AS PRECIPITATION AND FOG.

KYZ079-080-083-085-087-088-110-112-115-119-120-231200
...EASTERN KENTUCKY...

CITY           SKY/WX    TMP DP  RH WIND       PRES   REMARKS
JACKSON        TSTM      68  67  96 CALM      29.97F FOG
LONDON         CLOUDY    77  68  73 N7G17     29.96R
SOMERSET*      CLOUDY    75  68  78 E7        29.94S
MONTICELLO*    LGT RAIN  77  75  93 W10       29.96R
WILLIAMSBURG*  CLOUDY    75  75 100 CALM      29.95R
MIDDLESBORO*   PTCLDY    73  73 100 CALM      29.96R
HARLAN APT*    CLOUDY    72  70  94 CALM      29.97R
PIKE CO APT*   TSTM      67  67 100 W14G20    30.03R VSB 1/2
BIG SANDY APT* HVY RAIN  69  69 100 CALM      29.99R
MOREHEAD APT*  CLOUDY    70  68  94 S10       29.91F
$$

KYZ035-036-041-042-044-050-067-078-099-231200
...CENTRAL KENTUCKY...

CITY           SKY/WX    TMP DP  RH WIND       PRES   REMARKS
MT STERLING*   DRIZZLE   70  70 100 SW3       29.93S
DANVILLE*      MOCLDY    70  68  94 CALM      29.93F
LEXINGTON      LGT RAIN  72  69  90 S5        29.89F
FRANKFORT      LGT RAIN  76  62  62 W13G22    29.88S
LOUISVILLE     TSTM      74  69  85 SW10      29.83F
LEBANON*         N/A     73  68  83 CALM      29.91F
GLASGOW*       MOCLDY    76  68  76 CALM      29.91F
BOWLING GREEN  CLOUDY    79  76  90 CALM      29.90F
$$

KYZ091>093-OHZ055-061-077-WVZ005-015-034-035-042-231200
...SOUTHERN OHIO/WEST VIRGINIA...

CITY           SKY/WX    TMP DP  RH WIND       PRES   REMARKS
COVINGTON      CLOUDY    71  71 100 SW7       29.84S
COLUMBUS       CLOUDY    75  74  96 S5        29.82R
DAYTON         CLOUDY    74  72  93 SW7       29.83S
WILMINGTON     CLOUDY    71  71 100 SW10      29.84R
HUNTINGTON     LGT RAIN  70  67  90 S7        29.89R
CHARLESTON     LGT RAIN  70  67  90 W5        29.91R
PINEVILLE*     CLOUDY    70  69  96 MISG      30.01S FOG
BECKLEY        LGT RAIN  68  65  90 SW5       29.99R
BLUEFIELD      CLOUDY    67  65  93 W8        30.02F
LOGAN CO APT*  CLOUDY    68  68 100 CALM      29.96R FOG
$$

VAZ002-007-008-TNZ017-027-036-066-071-231200
...SOUTHWEST VIRGINIA/EAST TENNESSEE...

CITY           SKY/WX    TMP DP  RH WIND       PRES   REMARKS
WISE*          MOCLDY    68  68 100 CALM      30.05R FOG
JONESVILLE*      N/A     72  72 100 CALM      29.99R FOG
ABINGDON*      CLOUDY    71  70  95 CALM      29.99S
BRISTOL        CLOUDY    74  72  93 CALM      29.97R THUNDER
MORRISTOWN*    SUNNY     77  73  88 SW7       29.95S
SEVIERVILLE*   PTSUNNY   79  70  73 SW6       29.95R
KNOXVILLE      PTCLDY    77  73  87 W5        29.95R
LAFOLLETTE*      N/A     73  73 100 CALM      29.98R FOG
OAK RIDGE      CLEAR     78  74  87 CALM      29.95R
CROSSVILLE     CLEAR     71  70  96 SW5       29.99R
NASHVILLE      PTCLDY    79  70  74 SW6       29.89F
$$

...KEY TO REMARKS...
VSB - VISIBILITY IN MILES
WCI - WIND CHILL INDEX
HX  - HEAT INDEX

$$




USA.gov is the U.S. government's official web portal to all federal, state and local government web resources and services.